Location: Unspecified
(29.7560°N, 0.0000°E)
Time: 04:16:53
(UTC+00:00)

NOAA 16 DEB - Visible Passes

Search period start: 04 April 2026 00:00
Search period end: 14 April 2026 00:00
Orbit: 831 x 891 km, 98.7° (Epoch: 25 March)

Date Brightness Start Highest point End Pass type
(mag) Time Alt. Az. Time Alt. Az. Time Alt. Az.
4 Apr ? 03:47:30 10° ENE 03:50:01 13° E 03:52:31 10° ESE visible
5 Apr ? 03:40:32 10° E 03:41:09 10° E 03:41:45 10° E visible
5 Apr ? 05:16:51 10° N 05:22:24 73° WNW 05:28:00 10° SSW visible
6 Apr ? 05:08:02 10° NNE 05:13:38 88° W 05:19:16 10° SSW visible
7 Apr ? 04:59:16 10° NNE 05:04:50 76° ESE 05:10:29 10° S visible
8 Apr ? 04:50:31 10° NNE 04:56:03 63° ESE 05:01:38 10° S visible
9 Apr ? 04:41:49 10° NNE 04:47:15 51° E 04:52:44 10° S visible
10 Apr ? 04:33:10 10° NNE 04:38:26 42° E 04:43:45 10° S visible
11 Apr ? 04:24:33 10° NE 04:29:37 34° E 04:34:42 10° SSE visible
12 Apr ? 04:16:01 10° NE 04:20:47 28° E 04:25:34 10° SSE visible
13 Apr ? 04:07:33 10° NE 04:11:56 23° E 04:16:21 10° SSE visible
